Auburn, AL

1:14 AM CST on November 17, 2019 (GMT -0600)
Auburn-opelika-pitts

Weather History for KAUO - June, 2019

Change the Weather History Date:

Wednesday, June 12, 2019

  Actual Average Record
Temperature  
Mean Temperature 76 °F -  
Max Temperature 84 °F - 98 °F (1963)
Min Temperature 68 °F - 51 °F (1976)
Cooling Degree Days 11    
Month to date cooling degree days 154  
Year to date cooling degree days 570  
Since 1 June cooling degree days 154  
Growing Degree Days 26 (Base 50)    
Moisture  
Dew Point 72 °F    
Average Humidity 81    
Maximum Humidity 100    
Minimum Humidity 63    
Precipitation  
Precipitation 0.00 in - 1.65 in (1975)
Month to date precipitation 1.15  
Year to date precipitation 21.61  
Sea Level Pressure  
Sea Level Pressure 29.97 in    
Wind  
Wind Speed 5 mph (East)    
Max Wind Speed 12 mph    
Max Gust Speed -    
Visibility 10 miles    
Events      
T = Trace of Precipitation, MM = Missing Value Source: NWS Daily Summary

Daily Weather History Graph

Daily Weather History Graph

Search for Another Location

Airport or City:

Astronomy

Jun. 12, 2019 Rise Set
Actual Time 5:33 AM CDT 7:49 PM CDT
Civil Twilight 5:05 AM CDT 8:18 PM CDT
Nautical Twilight 4:30 AM CDT 8:53 PM CDT
Astronomical Twilight 3:52 AM CDT 9:30 PM CDT
Moon 3:13 PM CDT (6/12) 2:28 AM CDT (6/12)
Length of Visible Light 15h 13m
Length of Day
14h 16m
Waxing Gibbous, 77% of the Moon is Illuminated
Jun 12
Waxing Gibbous
Jun 17
Full
Jun 25
Last Quarter
Jul 2
New
Jul 9
First Quarter

Hourly Weather History & Observations

Time (CDT) Temp. Heat Index Dew Point Humidity Pressure Visibility Wind Dir Wind Speed Gust Speed Precip Events Conditions
12:07 AM 73.4 °F - - N/A% 29.98 in 10.0 mi Calm Calm - N/A   Overcast
1:56 AM 73.0 °F - - N/A% 30.00 in 10.0 mi Calm Calm - N/A   Overcast
2:28 AM 71.6 °F - - N/A% 29.96 in 10.0 mi NNE 4.6 mph - N/A   Overcast
2:56 AM 72.0 °F - - N/A% 29.99 in 10.0 mi Calm Calm - N/A   Overcast
3:56 AM 72.0 °F - - N/A% 29.99 in 10.0 mi ENE 4.6 mph - N/A   Overcast
4:56 AM 72.0 °F - - N/A% 29.99 in 10.0 mi ENE 6.9 mph - N/A   Overcast
5:46 AM 71.6 °F - - N/A% 29.97 in 10.0 mi ENE 5.8 mph - N/A   Overcast
5:56 AM 71.1 °F - - N/A% 29.99 in 10.0 mi ENE 6.9 mph - N/A   Overcast
6:48 AM 71.6 °F - - N/A% 29.96 in 9.0 mi ENE 6.9 mph - N/A   Scattered Clouds
6:56 AM 71.1 °F - - N/A% 29.99 in 10.0 mi East 8.1 mph - N/A   Scattered Clouds
7:17 AM 71.6 °F - - N/A% 29.96 in 10.0 mi ENE 5.8 mph - N/A   Mostly Cloudy
7:56 AM 73.0 °F - - N/A% 30.00 in 10.0 mi ENE 5.8 mph - N/A   Overcast
8:56 AM 73.9 °F - - N/A% 30.01 in 10.0 mi East 6.9 mph - N/A   Overcast
9:38 AM 75.2 °F - - N/A% 29.97 in 10.0 mi Variable 5.8 mph - N/A   Mostly Cloudy
9:56 AM 75.9 °F - 75.9 °F 100% 30.01 in 10.0 mi East 5.8 mph - N/A   Mostly Cloudy
10:11 AM 75.2 °F - 75.2 °F 100% 29.98 in 10.0 mi Variable 3.5 mph - N/A   Overcast
10:29 AM 78.8 °F - 73.4 °F 83% 29.97 in 10.0 mi Variable 4.6 mph - N/A   Overcast
10:56 AM 77.0 °F - 73.0 °F 88% 30.01 in 10.0 mi ESE 4.6 mph - N/A   Overcast
11:12 AM 78.8 °F - 73.4 °F 83% 29.97 in 10.0 mi SSE 6.9 mph - N/A   Overcast
11:56 AM 80.1 °F 83.8 °F 72.0 °F 76% 29.99 in 10.0 mi South 5.8 mph - N/A   Mostly Cloudy
12:56 PM 82.0 °F 86.3 °F 71.1 °F 69% 29.97 in 10.0 mi ENE 6.9 mph - N/A   Mostly Cloudy
1:48 PM 82.4 °F 87.2 °F 71.6 °F 70% 29.92 in 10.0 mi SE 5.8 mph - N/A   Mostly Cloudy
1:56 PM 82.0 °F 86.7 °F 72.0 °F 71% 29.94 in 10.0 mi ESE 6.9 mph - N/A   Mostly Cloudy
2:56 PM 82.9 °F 86.5 °F 69.1 °F 63% 29.92 in 10.0 mi Variable 4.6 mph - N/A   Partly Cloudy
3:56 PM 81.0 °F 85.8 °F 73.0 °F 77% 29.91 in 10.0 mi ESE 4.6 mph - N/A   Mostly Cloudy
4:07 PM 80.6 °F 85.4 °F 73.4 °F 79% 29.88 in 10.0 mi East 6.9 mph - N/A   Overcast
4:56 PM 81.0 °F 84.1 °F 69.1 °F 67% 29.91 in 10.0 mi WNW 11.5 mph - N/A   Overcast
5:56 PM 79.0 °F - 72.0 °F 79% 29.93 in 10.0 mi ENE 10.4 mph - N/A   Mostly Cloudy
6:56 PM 73.9 °F - 72.0 °F 93% 29.96 in 10.0 mi East 6.9 mph - N/A   Mostly Cloudy
7:56 PM 71.1 °F - 71.1 °F 100% 29.96 in 10.0 mi East 3.5 mph - N/A   Clear
8:34 PM 69.8 °F - - N/A% 29.94 in 10.0 mi ESE 4.6 mph - N/A   Partly Cloudy
8:56 PM 70.0 °F - - N/A% 29.99 in 10.0 mi ESE 5.8 mph - N/A   Partly Cloudy
9:04 PM 69.8 °F - - N/A% 29.95 in 10.0 mi Variable 5.8 mph - N/A   Scattered Clouds
9:14 PM 69.8 °F - - N/A% 29.96 in 10.0 mi Variable 5.8 mph - N/A   Mostly Cloudy
9:56 PM 70.0 °F - - N/A% 30.00 in 10.0 mi SE 4.6 mph - N/A   Mostly Cloudy
10:56 PM 69.1 °F - - N/A% 30.00 in 10.0 mi Calm Calm - N/A   Clear
11:56 PM 68.0 °F - - N/A% 30.00 in 10.0 mi SSW 3.5 mph - N/A   Clear